User: anonymous
Location: Caltech
(34.1382°N, 118.1253°W)
Time: 09:56:00
(UTC-07:00)
Language:

CZ-2C R/B - Orbit

View from above orbital plane
View from above orbital plane
View from above satellite
View from above satellite

Ground track
Ground track

The orbit data is extracted from the following two-line orbital elements,

1 36089U 09061B   14237.20513157  .00000158  00000-0  51406-4 0  4071
2 36089 098.1013 267.4346 0081536 327.4748 079.0912 14.49206635252939
Epoch (UTC): 25 August 2014 04:55:23
Eccentricity: 0.0081536
inclination: 98.1013°
perigee height: 670 km
apogee height: 786 km
right ascension of ascending node: 267.4346°
argument of perigee: 327.4748°
revolutions per day: 14.49206635
mean anomaly at epoch: 79.0912°
orbit number at epoch: 25293

The dashed part of the orbit path shows where the satellite is in the earth's shadow,  

DLR